Content
SEND FEEDBACK

Daily
Averages
Monthly
Summary
Brazil

SAO LUIS, MARANHÃO


Home > South America > Brazil > Maranhão
Elevation: 174 feet     Latitude: 02 36S     Longitude: 044 14W

WEATHER
 
SELECT A DAY
Number of Records: 168,812;   Date Range: 6/30/96 - 9/28/14
 
SHARE

PRINT THIS DATA

[ ← Previous Day ]
WEATHER ALMANAC - JANUARY 31, 2013
[ Next Day → ]
[ °C ]   °F
Weather ElementAverageHighLow
Temperature83.9 °F89.6 °F (12:00 pm)78.8 °F (6:00 am)
Dewpoint66.4 °F69.8 °F (11:00 pm)60.8 °F (1:00 pm)
Humidity55 %70 % (11:00 pm)35 % (3:00 pm)
Barometer29.84 in29.89 in (9:00 am)29.80 in (3:00 pm)
Wind Speed12 mph23 mph (3:00 pm)
Weather ElementAverage
Visibility7.1 mi
Wind DirectionENE (52.6 °)

Weather ElementTotal
Precipitation---
Cooling Degree Days19.2 (Base 65)
Growing Degree Days34.2 (Base 50)
Averaged from 27 records on January 31, 2013
WEATHER CONDITIONS BREAKOUT
WIND DIRECTION BREAKOUT
WEATHER BY HOUR - JANUARY 31, 2013
[ °C ]   °F
Local TimeTemperatureDewpointHumidityBarometerVisibilityWind DirectionWind SpeedGust SpeedPrecipitationEventsConditions
1:00 AM80.6 °F68.0 °F65 %29.86 in6.2 miENE (60°)6.9 mphScattered Clouds
2:00 AM80.6 °F68.0 °F65 %29.86 in6.2 miENE (60°)5.8 mphScattered Clouds
3:00 AM81.0 °F67.0 °F53 %29.84 in12.0 miENE (60°)11.5 mphScattered Clouds
3:00 AM80.6 °F66.2 °F61 %29.83 in6.2 miENE (60°)11.5 mphMostly Cloudy
4:00 AM80.6 °F68.0 °F65 %29.83 in6.2 miENE (60°)8.1 mphScattered Clouds
5:00 AM80.6 °F68.0 °F65 %29.83 in6.2 miENE (60°)4.6 mphPartly Cloudy
6:00 AM78.8 °F68.0 °F69 %29.83 in6.2 miENE (60°)2.3 mphPartly Cloudy
7:00 AM80.6 °F68.0 °F65 %29.86 in6.2 miENE (60°)6.9 mphPartly Cloudy
8:00 AM82.4 °F68.0 °F62 %29.86 in6.2 miEast (80°)6.9 mphPartly Cloudy
9:00 AM84.0 °F68.0 °F49 %29.88 in12.0 miENE (60°)10.4 mphPartly Cloudy
9:00 AM84.2 °F68.0 °F58 %29.89 in6.2 miENE (60°)10.4 mphScattered Clouds
10:00 AM86.0 °F64.4 °F48 %29.86 in6.2 miNE (50°)13.8 mphMostly Cloudy
11:00 AM87.8 °F64.4 °F46 %29.86 in6.2 miENE (60°)16.1 mphMostly Cloudy
12:00 PM89.6 °F64.4 °F43 %29.86 in6.2 miNE (50°)18.4 mphMostly Cloudy
1:00 PM89.6 °F60.8 °F38 %29.86 in6.2 miNE (40°)21.9 mphMostly Cloudy
2:00 PM87.8 °F62.6 °F43 %29.83 in6.2 miNNE (30°)16.1 mphScattered Clouds
3:00 PM89.0 °F65.0 °F35 %29.81 in12.0 miNE (50°)23.0 mphPartly Cloudy
3:00 PM89.6 °F64.4 °F43 %29.80 in6.2 miNE (50°)23.0 mphScattered Clouds
4:00 PM87.8 °F60.8 °F40 %29.80 in6.2 miNE (50°)16.1 mphScattered Clouds
5:00 PM86.0 °F64.4 °F48 %29.80 in6.2 miNE (40°)15.0 mphMostly Cloudy
6:00 PM84.2 °F66.2 °F55 %29.80 in6.2 miNE (40°)16.1 mphScattered Clouds
7:00 PM84.2 °F68.0 °F58 %29.80 in6.2 miNE (50°)12.7 mphPartly Cloudy
8:00 PM82.4 °F68.0 °F62 %29.83 in6.2 miNE (40°)9.2 mphPartly Cloudy
9:00 PM82.0 °F68.0 °F54 %29.83 in12.0 miNE (40°)9.2 mphPartly Cloudy
9:00 PM82.4 °F68.0 °F62 %29.83 in6.2 miNE (40°)9.2 mphScattered Clouds
10:00 PM82.4 °F68.0 °F62 %29.83 inNE (50°)10.4 mphClear
11:00 PM80.6 °F69.8 °F70 %29.83 inENE (60°)9.2 mphClear
Hourly data recorded from SBSL, located miles away from Sao Luis, Maranhão







STORIES FROM OUR PARTNERS